TimePST,TemperatureF,Dew PointF,Humidity,Sea Level PressureIn,VisibilityMPH,Wind Direction,Wind SpeedMPH,Gust SpeedMPH,PrecipitationIn,Events,Conditions,WindDirDegrees,DateUTC
12:00 AM,32.0,32.0,100,30.44,0.5,Calm,Calm,-,N/A,Fog,Fog,0,2011-11-29 08:00:00
12:07 AM,32.0,32.0,100,30.43,0.2,Calm,Calm,-,N/A,Fog,Fog,0,2011-11-29 08:07:00
12:14 AM,33.8,32.0,93,30.43,0.2,Calm,Calm,-,N/A,Fog,Fog,0,2011-11-29 08:14:00
12:26 AM,33.8,32.0,93,30.43,0.2,Calm,Calm,-,N/A,Fog,Fog,0,2011-11-29 08:26:00
12:32 AM,33.8,32.0,93,30.43,0.2,Calm,Calm,-,N/A,Fog,Fog,0,2011-11-29 08:32:00
12:39 AM,33.8,32.0,93,30.43,0.2,Calm,Calm,-,N/A,Fog,Fog,0,2011-11-29 08:39:00
12:55 AM,33.3,33.1,99,30.43,0.2,Calm,Calm,-,N/A,Fog,Fog,0,2011-11-29 08:55:00
12:57 AM,33.8,33.8,100,30.43,0.2,Calm,Calm,-,N/A,Fog,Fog,0,2011-11-29 08:57:00
12:59 AM,33.8,33.8,100,30.43,0.2,Calm,Calm,-,N/A,Fog,Fog,0,2011-11-29 08:59:00
1:13 AM,33.8,33.8,100,30.43,0.2,Calm,Calm,-,N/A,Fog,Fog,0,2011-11-29 09:13:00
1:24 AM,33.8,33.8,100,30.43,0.2,Calm,Calm,-,N/A,Fog,Fog,0,2011-11-29 09:24:00
1:28 AM,33.8,33.8,100,30.43,0.2,Calm,Calm,-,N/A,Fog,Fog,0,2011-11-29 09:28:00
1:39 AM,33.8,33.8,100,30.43,0.2,Calm,Calm,-,N/A,Fog,Fog,0,2011-11-29 09:39:00
1:45 AM,33.8,33.8,100,30.43,0.2,Calm,Calm,-,N/A,Fog,Fog,0,2011-11-29 09:45:00
1:55 AM,33.8,33.6,99,30.43,0.2,Calm,Calm,-,N/A,Fog,Fog,0,2011-11-29 09:55:00
1:56 AM,33.8,33.8,100,30.43,0.2,Calm,Calm,-,N/A,Fog,Fog,0,2011-11-29 09:56:00
2:02 AM,33.8,33.8,100,30.43,0.2,Calm,Calm,-,N/A,Fog,Fog,0,2011-11-29 10:02:00
2:03 AM,33.8,33.8,100,30.43,0.2,Calm,Calm,-,N/A,Fog,Fog,0,2011-11-29 10:03:00
2:06 AM,33.8,33.8,100,30.43,0.2,Calm,Calm,-,N/A,Fog,Fog,0,2011-11-29 10:06:00
2:08 AM,33.8,33.8,100,30.43,0.2,Calm,Calm,-,N/A,Fog,Fog,0,2011-11-29 10:08:00
2:22 AM,33.8,33.8,100,30.43,0.2,ESE,3.5,-,N/A,Fog,Fog,120,2011-11-29 10:22:00
2:27 AM,33.8,33.8,100,30.43,0.2,ESE,4.6,-,N/A,Fog,Fog,110,2011-11-29 10:27:00
2:37 AM,33.8,33.8,100,30.43,0.2,ESE,3.5,-,N/A,Fog,Fog,110,2011-11-29 10:37:00
2:41 AM,33.8,33.8,100,30.43,0.2,ESE,3.5,-,N/A,Fog,Fog,110,2011-11-29 10:41:00
2:44 AM,33.8,33.8,100,30.43,0.2,ESE,4.6,-,N/A,Fog,Fog,110,2011-11-29 10:44:00
2:46 AM,33.8,33.8,100,30.42,0.2,ESE,3.5,-,N/A,Fog,Fog,120,2011-11-29 10:46:00
2:50 AM,33.8,33.8,100,30.43,0.2,ESE,4.6,-,N/A,Fog,Fog,110,2011-11-29 10:50:00
2:55 AM,34.0,33.8,99,30.42,0.5,ESE,4.6,-,N/A,Fog,Fog,110,2011-11-29 10:55:00
2:58 AM,33.8,33.8,100,30.42,0.5,ESE,4.6,-,N/A,Fog,Fog,110,2011-11-29 10:58:00
3:04 AM,33.8,33.8,100,30.42,0.8,ESE,3.5,-,N/A,,Mist,110,2011-11-29 11:04:00
3:06 AM,33.8,33.8,100,30.43,0.8,ESE,3.5,-,N/A,,Mist,110,2011-11-29 11:06:00
3:08 AM,33.8,33.8,100,30.43,0.8,ESE,3.5,-,N/A,,Mist,110,2011-11-29 11:08:00
3:13 AM,33.8,33.8,100,30.43,0.8,ESE,3.5,-,N/A,,Mist,120,2011-11-29 11:13:00
3:15 AM,33.8,33.8,100,30.42,1.0,ESE,3.5,-,N/A,,Mist,120,2011-11-29 11:15:00
3:21 AM,33.8,33.8,100,30.42,1.2,Calm,Calm,-,N/A,,Overcast,0,2011-11-29 11:21:00
3:27 AM,33.8,33.8,100,30.42,1.8,Calm,Calm,-,N/A,,Overcast,0,2011-11-29 11:27:00
3:30 AM,33.8,33.8,100,30.42,2.0,Calm,Calm,-,N/A,,Overcast,0,2011-11-29 11:30:00
3:33 AM,33.8,33.8,100,30.42,1.8,Calm,Calm,-,N/A,,Overcast,0,2011-11-29 11:33:00
3:38 AM,33.8,33.8,100,30.41,2.0,Calm,Calm,-,N/A,,Overcast,0,2011-11-29 11:38:00
3:42 AM,33.8,33.8,100,30.41,2.5,Calm,Calm,-,N/A,,Overcast,0,2011-11-29 11:42:00
3:45 AM,33.8,33.8,100,30.41,3.0,Calm,Calm,-,N/A,,Overcast,0,2011-11-29 11:45:00
3:55 AM,33.8,33.6,99,30.39,3.0,ESE,3.5,-,N/A,,Overcast,120,2011-11-29 11:55:00
3:58 AM,33.8,33.8,100,30.39,2.5,ESE,4.6,-,N/A,,Overcast,110,2011-11-29 11:58:00
4:01 AM,33.8,33.8,100,30.38,2.0,ESE,3.5,-,N/A,,Mostly Cloudy,120,2011-11-29 12:01:00
4:05 AM,33.8,33.8,100,30.39,1.8,Calm,Calm,-,N/A,,Mostly Cloudy,0,2011-11-29 12:05:00
4:09 AM,33.8,33.8,100,30.39,1.8,Calm,Calm,-,N/A,,Scattered Clouds,0,2011-11-29 12:09:00
4:11 AM,33.8,33.8,100,30.40,1.5,Calm,Calm,-,N/A,,Scattered Clouds,0,2011-11-29 12:11:00
4:20 AM,33.8,33.8,100,30.39,1.8,Calm,Calm,-,N/A,,Scattered Clouds,0,2011-11-29 12:20:00
4:24 AM,33.8,33.8,100,30.39,2.0,Calm,Calm,-,N/A,,Scattered Clouds,0,2011-11-29 12:24:00
4:30 AM,33.8,33.8,100,30.39,2.0,Calm,Calm,-,N/A,,Mostly Cloudy,0,2011-11-29 12:30:00
4:37 AM,33.8,33.8,100,30.40,1.8,Calm,Calm,-,N/A,,Mostly Cloudy,0,2011-11-29 12:37:00
4:41 AM,33.8,33.8,100,30.40,1.8,Calm,Calm,-,N/A,,Scattered Clouds,0,2011-11-29 12:41:00
4:49 AM,33.8,33.8,100,30.40,1.5,Calm,Calm,-,N/A,,Scattered Clouds,0,2011-11-29 12:49:00
4:51 AM,33.8,33.8,100,30.40,1.8,Calm,Calm,-,N/A,,Scattered Clouds,0,2011-11-29 12:51:00
4:52 AM,33.8,33.8,100,30.40,1.8,Calm,Calm,-,N/A,,Mostly Cloudy,0,2011-11-29 12:52:00
4:55 AM,34.3,34.0,99,30.40,1.8,Calm,Calm,-,N/A,,Mostly Cloudy,0,2011-11-29 12:55:00
5:00 AM,33.8,33.8,100,30.39,1.5,Calm,Calm,-,N/A,,Mostly Cloudy,0,2011-11-29 13:00:00
5:11 AM,33.8,33.8,100,30.39,1.8,Calm,Calm,-,N/A,,Mostly Cloudy,0,2011-11-29 13:11:00
5:12 AM,33.8,33.8,100,30.39,2.0,Calm,Calm,-,N/A,,Mostly Cloudy,0,2011-11-29 13:12:00
5:14 AM,33.8,33.8,100,30.39,2.5,Calm,Calm,-,N/A,,Overcast,0,2011-11-29 13:14:00
5:15 AM,33.8,33.8,100,30.39,3.0,Calm,Calm,-,N/A,,Overcast,0,2011-11-29 13:15:00
5:23 AM,35.6,35.6,100,30.39,2.5,Calm,Calm,-,N/A,,Overcast,0,2011-11-29 13:23:00
5:26 AM,35.6,35.6,100,30.39,3.0,Calm,Calm,-,N/A,,Overcast,0,2011-11-29 13:26:00
5:37 AM,35.6,35.6,100,30.38,2.5,Calm,Calm,-,N/A,,Overcast,0,2011-11-29 13:37:00
5:39 AM,35.6,35.6,100,30.39,2.0,Calm,Calm,-,N/A,,Overcast,0,2011-11-29 13:39:00
5:41 AM,35.6,35.6,100,30.39,1.8,Calm,Calm,-,N/A,,Overcast,0,2011-11-29 13:41:00
5:51 AM,35.6,33.8,93,30.39,1.5,Calm,Calm,-,N/A,,Mostly Cloudy,0,2011-11-29 13:51:00
5:54 AM,35.6,33.8,93,30.39,1.0,Calm,Calm,-,N/A,,Mist,0,2011-11-29 13:54:00
5:55 AM,34.9,34.7,99,30.39,1.0,Calm,Calm,-,N/A,,Mist,0,2011-11-29 13:55:00
5:56 AM,35.6,33.8,93,30.39,0.8,Calm,Calm,-,N/A,,Mist,0,2011-11-29 13:56:00
5:59 AM,35.6,33.8,93,30.38,0.8,Calm,Calm,-,N/A,,Mist,0,2011-11-29 13:59:00
6:00 AM,35.6,33.8,93,30.38,0.8,Calm,Calm,-,N/A,,Mist,0,2011-11-29 14:00:00
6:01 AM,35.6,33.8,93,30.38,0.5,Calm,Calm,-,N/A,Fog,Fog,0,2011-11-29 14:01:00
6:23 AM,35.6,33.8,93,30.38,0.5,SSE,4.6,-,N/A,Fog,Fog,150,2011-11-29 14:23:00
6:24 AM,35.6,33.8,93,30.38,0.2,SSE,4.6,-,N/A,Fog,Fog,150,2011-11-29 14:24:00
6:30 AM,33.8,33.8,100,30.38,0.5,Calm,Calm,-,N/A,Fog,Fog,0,2011-11-29 14:30:00
6:40 AM,33.8,33.8,100,30.38,0.2,SSW,3.5,-,N/A,Fog,Fog,200,2011-11-29 14:40:00
6:44 AM,33.8,33.8,100,30.38,0.5,Calm,Calm,-,N/A,Fog,Fog,0,2011-11-29 14:44:00
6:55 AM,34.7,34.3,99,30.38,0.5,Calm,Calm,-,N/A,Fog,Fog,0,2011-11-29 14:55:00
7:17 AM,35.6,33.8,93,30.37,0.5,SSE,3.5,-,N/A,Fog,Fog,150,2011-11-29 15:17:00
7:20 AM,35.6,33.8,93,30.36,0.5,SSE,3.5,-,N/A,Fog,Fog,150,2011-11-29 15:20:00
7:21 AM,35.6,33.8,93,30.36,0.2,SSE,3.5,-,N/A,Fog,Fog,150,2011-11-29 15:21:00
7:31 AM,35.6,35.6,100,30.36,0.2,SE,3.5,-,N/A,Fog,Fog,140,2011-11-29 15:31:00
7:37 AM,35.6,35.6,100,30.37,0.2,Calm,Calm,-,N/A,Fog,Fog,0,2011-11-29 15:37:00
7:40 AM,35.6,35.6,100,30.38,0.2,Calm,Calm,-,N/A,Fog,Fog,0,2011-11-29 15:40:00
7:50 AM,35.6,35.6,100,30.38,0.2,Calm,Calm,-,N/A,Fog,Fog,0,2011-11-29 15:50:00
7:51 AM,35.6,35.6,100,30.38,0.2,South,3.5,-,N/A,Fog,Fog,190,2011-11-29 15:51:00
7:55 AM,35.6,35.4,99,30.38,0.2,South,3.5,-,N/A,Fog,Fog,190,2011-11-29 15:55:00
8:04 AM,35.6,35.6,100,30.37,0.2,SSE,3.5,-,N/A,Fog,Fog,160,2011-11-29 16:04:00
8:05 AM,35.6,35.6,100,30.37,0.2,SSE,3.5,-,N/A,Fog,Fog,150,2011-11-29 16:05:00
8:06 AM,35.6,35.6,100,30.37,0.2,SE,3.5,-,N/A,Fog,Fog,140,2011-11-29 16:06:00
8:10 AM,35.6,35.6,100,30.36,0.5,Calm,Calm,-,N/A,Fog,Fog,0,2011-11-29 16:10:00
8:11 AM,35.6,35.6,100,30.36,0.5,Calm,Calm,-,N/A,Fog,Fog,0,2011-11-29 16:11:00
8:14 AM,35.6,35.6,100,30.36,0.8,SSE,3.5,-,N/A,,Mist,150,2011-11-29 16:14:00
8:15 AM,35.6,35.6,100,30.36,0.8,SSE,3.5,-,N/A,,Mist,150,2011-11-29 16:15:00
8:17 AM,35.6,35.6,100,30.36,1.0,SSE,3.5,-,N/A,,Mist,150,2011-11-29 16:17:00
8:20 AM,35.6,35.6,100,30.36,1.2,SE,3.5,-,N/A,,Scattered Clouds,140,2011-11-29 16:20:00
8:22 AM,35.6,35.6,100,30.36,1.2,SE,4.6,-,N/A,,Mostly Cloudy,140,2011-11-29 16:22:00
8:38 AM,37.4,35.6,93,30.37,1.0,South,4.6,-,N/A,,Mist,170,2011-11-29 16:38:00
8:42 AM,37.4,35.6,93,30.37,0.8,South,5.8,-,N/A,,Mist,180,2011-11-29 16:42:00
8:44 AM,37.4,35.6,93,30.37,0.8,South,5.8,-,N/A,,Mist,190,2011-11-29 16:44:00
8:45 AM,37.4,35.6,93,30.37,0.8,South,5.8,-,N/A,,Mist,190,2011-11-29 16:45:00
8:47 AM,37.4,35.6,93,30.37,0.5,South,4.6,-,N/A,Fog,Fog,190,2011-11-29 16:47:00
8:55 AM,36.7,36.5,99,30.37,0.5,South,4.6,-,N/A,Fog,Fog,190,2011-11-29 16:55:00
9:02 AM,37.4,35.6,93,30.36,0.2,South,4.6,-,N/A,Fog,Fog,170,2011-11-29 17:02:00
9:06 AM,37.4,35.6,93,30.36,0.2,SSE,5.8,-,N/A,Fog,Fog,160,2011-11-29 17:06:00
9:08 AM,37.4,35.6,93,30.35,0.2,South,5.8,-,N/A,Fog,Fog,170,2011-11-29 17:08:00
9:11 AM,37.4,37.4,100,30.35,0.2,South,5.8,-,N/A,Fog,Fog,170,2011-11-29 17:11:00
9:12 AM,37.4,37.4,100,30.35,0.2,South,5.8,-,N/A,Fog,Fog,170,2011-11-29 17:12:00
9:15 AM,37.4,37.4,100,30.35,0.2,South,5.8,-,N/A,Fog,Fog,170,2011-11-29 17:15:00
9:18 AM,37.4,37.4,100,30.35,0.2,SSE,3.5,-,N/A,Fog,Fog,160,2011-11-29 17:18:00
9:20 AM,37.4,37.4,100,30.35,0.2,SE,3.5,-,N/A,Fog,Fog,130,2011-11-29 17:20:00
9:23 AM,37.4,37.4,100,30.35,0.2,SE,3.5,-,N/A,Fog,Fog,130,2011-11-29 17:23:00
9:24 AM,37.4,37.4,100,30.35,0.5,SE,4.6,-,N/A,Fog,Fog,130,2011-11-29 17:24:00
9:25 AM,37.4,37.4,100,30.35,0.5,SE,4.6,-,N/A,Fog,Fog,140,2011-11-29 17:25:00
9:29 AM,37.4,37.4,100,30.35,0.8,Calm,Calm,-,N/A,,Mist,0,2011-11-29 17:29:00
9:30 AM,37.4,37.4,100,30.35,0.8,Calm,Calm,-,N/A,,Mist,0,2011-11-29 17:30:00
9:31 AM,37.4,37.4,100,30.35,1.0,Calm,Calm,-,N/A,,Mist,0,2011-11-29 17:31:00
9:32 AM,37.4,37.4,100,30.35,1.2,Calm,Calm,-,N/A,,Mostly Cloudy,0,2011-11-29 17:32:00
9:33 AM,37.4,37.4,100,30.35,1.8,Calm,Calm,-,N/A,,Mostly Cloudy,0,2011-11-29 17:33:00
9:40 AM,37.4,37.4,100,30.35,1.5,WSW,3.5,-,N/A,,Mostly Cloudy,240,2011-11-29 17:40:00
9:49 AM,37.4,37.4,100,30.35,1.8,Calm,Calm,-,N/A,,Mostly Cloudy,0,2011-11-29 17:49:00
9:50 AM,37.4,37.4,100,30.35,2.0,Calm,Calm,-,N/A,,Mostly Cloudy,0,2011-11-29 17:50:00
9:51 AM,37.4,37.4,100,30.34,2.5,Calm,Calm,-,N/A,,Mostly Cloudy,0,2011-11-29 17:51:00
9:52 AM,37.4,37.4,100,30.34,3.0,Calm,Calm,-,N/A,,Mostly Cloudy,0,2011-11-29 17:52:00
9:55 AM,37.0,36.7,99,30.34,5.0,Calm,Calm,-,N/A,,Overcast,0,2011-11-29 17:55:00
9:59 AM,37.4,37.4,100,30.34,4.0,South,3.5,-,N/A,,Overcast,190,2011-11-29 17:59:00
10:09 AM,37.4,37.4,100,30.32,7.0,South,3.5,-,N/A,,Overcast,190,2011-11-29 18:09:00
10:55 AM,37.8,37.4,99,30.29,10.0,South,3.5,-,N/A,,Overcast,190,2011-11-29 18:55:00
11:30 AM,39.2,39.2,100,30.27,10.0,WSW,4.6,-,N/A,,Overcast,250,2011-11-29 19:30:00
11:54 AM,39.2,39.2,100,30.28,10.0,WSW,5.8,-,N/A,,Mostly Cloudy,250,2011-11-29 19:54:00
11:55 AM,39.4,39.2,99,30.28,10.0,West,4.6,-,N/A,,Mostly Cloudy,260,2011-11-29 19:55:00
12:06 PM,39.2,39.2,100,30.29,10.0,WNW,6.9,-,N/A,,Mostly Cloudy,290,2011-11-29 20:06:00
12:20 PM,39.2,39.2,100,30.27,10.0,SW,4.6,-,N/A,,Overcast,230,2011-11-29 20:20:00
12:21 PM,39.2,39.2,100,30.27,10.0,Variable,5.8,-,N/A,,Overcast,0,2011-11-29 20:21:00
12:32 PM,39.2,39.2,100,30.27,10.0,SW,6.9,-,N/A,,Overcast,220,2011-11-29 20:32:00
12:40 PM,39.2,39.2,100,30.26,10.0,SW,5.8,-,N/A,,Overcast,230,2011-11-29 20:40:00
12:47 PM,39.2,39.2,100,30.26,10.0,SSW,5.8,-,N/A,,Overcast,200,2011-11-29 20:47:00
12:55 PM,39.6,39.2,99,30.27,10.0,SSW,6.9,-,N/A,,Overcast,210,2011-11-29 20:55:00
1:55 PM,40.3,40.1,99,30.27,10.0,SSW,8.1,-,N/A,,Scattered Clouds,200,2011-11-29 21:55:00
2:55 PM,41.0,38.5,91,30.27,10.0,South,8.1,-,N/A,,Overcast,180,2011-11-29 22:55:00
3:55 PM,41.9,37.9,86,30.24,10.0,SSE,4.6,-,N/A,,Mostly Cloudy,160,2011-11-29 23:55:00
4:44 PM,42.8,37.4,81,30.22,10.0,South,5.8,-,N/A,,Overcast,170,2011-11-30 00:44:00
4:55 PM,41.4,37.8,87,30.22,10.0,South,4.6,-,0.00,Rain,Light Rain,170,2011-11-30 00:55:00
5:05 PM,41.0,37.4,87,30.22,10.0,South,4.6,-,N/A,,Scattered Clouds,170,2011-11-30 01:05:00
5:36 PM,41.0,39.2,93,30.20,10.0,South,8.1,-,N/A,,Mostly Cloudy,180,2011-11-30 01:36:00
5:44 PM,41.0,39.2,93,30.20,10.0,South,9.2,-,N/A,,Mostly Cloudy,170,2011-11-30 01:44:00
5:52 PM,41.0,37.4,87,30.20,10.0,South,8.1,-,N/A,,Mostly Cloudy,180,2011-11-30 01:52:00
5:55 PM,41.7,38.1,87,30.20,10.0,South,6.9,-,0.01,,Mostly Cloudy,170,2011-11-30 01:55:00
6:46 PM,42.8,37.4,81,30.19,10.0,SE,6.9,-,N/A,Rain,Light Rain,140,2011-11-30 02:46:00
6:55 PM,42.6,38.1,84,30.18,10.0,SE,8.1,-,0.00,Rain,Light Rain,140,2011-11-30 02:55:00
7:06 PM,42.8,37.4,81,30.18,10.0,SSE,9.2,-,N/A,,Mostly Cloudy,150,2011-11-30 03:06:00
7:16 PM,42.8,39.2,87,30.19,10.0,South,9.2,-,N/A,,Scattered Clouds,170,2011-11-30 03:16:00
7:19 PM,42.8,39.2,87,30.19,10.0,South,8.1,-,N/A,,Mostly Cloudy,180,2011-11-30 03:19:00
7:55 PM,43.0,39.2,86,30.20,10.0,South,9.2,-,0.00,,Mostly Cloudy,170,2011-11-30 03:55:00
8:02 PM,42.8,39.2,87,30.19,10.0,South,10.4,-,N/A,,Mostly Cloudy,170,2011-11-30 04:02:00
8:20 PM,42.8,39.2,87,30.18,10.0,South,12.7,-,N/A,Rain,Light Rain,180,2011-11-30 04:20:00
8:55 PM,43.2,40.6,91,30.19,10.0,SSW,9.2,-,0.01,Rain,Light Rain,200,2011-11-30 04:55:00
9:17 PM,42.8,41.0,93,30.19,10.0,SSW,11.5,-,N/A,Rain,Light Rain,200,2011-11-30 05:17:00
9:19 PM,42.8,41.0,93,30.19,10.0,South,10.4,-,N/A,,Mostly Cloudy,190,2011-11-30 05:19:00
9:31 PM,42.8,41.0,93,30.19,10.0,SSW,8.1,-,N/A,Rain,Light Rain,210,2011-11-30 05:31:00
9:51 PM,44.6,41.0,87,30.21,10.0,SSW,6.9,-,N/A,,Mostly Cloudy,210,2011-11-30 05:51:00
9:54 PM,44.6,41.0,87,30.21,10.0,SSW,5.8,-,N/A,Rain,Light Rain,210,2011-11-30 05:54:00
9:55 PM,43.7,40.6,89,30.21,10.0,SSW,5.8,-,0.00,Rain,Light Rain,200,2011-11-30 05:55:00
10:55 PM,43.0,41.0,93,30.22,10.0,SSW,5.8,-,0.03,,Light Drizzle,210,2011-11-30 06:55:00
10:57 PM,42.8,41.0,93,30.22,10.0,SSW,6.9,-,N/A,,Light Drizzle,210,2011-11-30 06:57:00
10:59 PM,42.8,41.0,93,30.23,10.0,SSW,6.9,-,N/A,,Light Drizzle,210,2011-11-30 06:59:00
11:33 PM,42.8,41.0,93,30.24,10.0,SSW,6.9,-,N/A,,Mostly Cloudy,200,2011-11-30 07:33:00
11:55 PM,43.0,41.5,95,30.24,10.0,South,9.2,-,0.01,,Mostly Cloudy,190,2011-11-30 07:55:00